This demonstration page uses our WeatherBlox Daily Observations layout. Learn more.

Left ArrowRight Arrow

41.86663, -103.66717

Hourly Observations for November 18, 2016

Temp ( °F °C ) Dew Point ( °F °C ) Humidity (%) Winds ( mph kmh ) Pressure ( in mb ) Visibility ( mi km ) Precip ( " mm )
12:40 am 00:40 Cloudy with Light Snow 27 -3 19 -7 74 74 NW 15 24 30.30 1026 9 14 N/A
12:53 am 00:53 Cloudy with Light Snow 27 -2.8 20 -6.7 75 75 NW 16 26 30.22 1024 9 14 N/A
1:53 am 01:53 Cloudy with Light Snow 26 -3.3 18 -7.8 71 71 NW 15 24 30.26 1025 9 14 N/A
2:53 am 02:53 Windy with Snow Likely 26 -3.3 17 -8.3 69 69 NW 20 31 30.29 1026 9 14 N/A
3:53 am 03:53 Cloudy with Light Snow 25 -3.9 17 -8.3 72 72 WNW 15 24 30.32 1027 9 14 N/A
4:53 am 04:53 Cloudy with Light Snow 26 -3.3 17 -8.3 69 69 WNW 15 24 30.33 1027 9 14 N/A
5:53 am 05:53 Partly Cloudy with Scattered Snow Showers 25 -3.9 16 -8.9 69 69 WNW 21 33 30.36 1028 9 14 N/A
6:53 am 06:53 Mostly Cloudy with Light Snow 23 -5 14 -10 68 68 WNW 16 26 30.40 1029 9 14 N/A
7:53 am 07:53 Sunny with Light Snow 23 -5 14 -10 68 68 WNW 18 30 30.43 1031 9 14 N/A
8:53 am 08:53 Windy with Snow Likely 27 -2.8 17 -8.3 66 66 WNW 20 31 30.45 1031 9 14 N/A
9:53 am 09:53 Windy with Snow Likely 30 -1.1 18 -7.8 61 61 NW 21 33 30.48 1032 9 14 N/A
10:53 am 10:53 Partly Cloudy with Isolated Snow Showers 32 undefined 20 -6.7 61 61 NW 22 35 30.48 1032 9 14 N/A
11:53 am 11:53 Partly Cloudy with Isolated Snow Showers 34 1.1 20 -6.7 56 56 NW 20 31 30.48 1032 9 14 N/A
12:53 pm 12:53 Windy with Snow Likely 35 1.7 18 -7.8 50 50 NW 21 33 30.47 1032 9 14 N/A
1:53 pm 13:53 Windy with Snow Likely 36 2.2 19 -7.2 50 50 NNW 21 33 30.46 1032 9 14 N/A
2:53 pm 14:53 Sunny with Light Snow 36 2.2 18 -7.8 48 48 NNW 18 30 30.47 1032 9 14 N/A
3:53 pm 15:53 Sunny 34 1.1 18 -7.8 52 52 NNW 10 17 30.49 1033 10 16 N/A
4:53 pm 16:53 Clear 26 -3.3 17 -8.3 69 69 NNW 7 11 30.53 1034 10 16 N/A
5:53 pm 17:53 Clear 23 -5 15 -9.4 72 72 N N/A 30.57 1035 10 16 N/A
6:53 pm 18:53 Clear 19 -7.2 13 -10.6 77 77 ESE 3 6 30.59 1036 10 16 N/A
7:53 pm 19:53 Clear 17 -8.3 11 -11.7 77 77 N N/A 30.60 1036 10 16 N/A
8:53 pm 20:53 Clear 17 -8.3 11 -11.7 77 77 ESE 3 6 30.59 1036 10 16 N/A
9:53 pm 21:53 Clear 15 -9.4 10 -12.2 80 80 E 5 7 30.57 1035 10 16 N/A
10:53 pm 22:53 Clear 15 -9.4 10 -12.2 80 80 ESE 6 9 30.56 1035 10 16 N/A
11:53 pm 23:53 Clear 17 -8.3 12 -11.1 80 80 E 5 7 30.53 1034 10 16 N/A

Powered by AerisWeather